GEFSMA_500_meanwind_264.txt.gz
Wind_Speed
33 34 33 32 32 32 32 31 30 30 29 29 29 29 29 28 29 28 29 29 30 30 30 31 32 32 32 33 33 34 34 35 36 36 37 38 38 38 39 39 40 40 41
36 36 35 34 34 34 33 32 32 31 31 31 31 30 30 30 30 30 30 31 31 32 32 32 33 33 34 34 34 35 36 37 38 38 38 38 39 39 40 41 41 42 42
36 37 36 36 36 35 34 34 33 33 33 32 32 32 32 31 32 32 31 31 32 33 33 34 34 35 35 35 36 37 38 39 39 39 40 40 41 41 41 42 43 43 43
38 38 38 38 37 37 36 35 34 35 35 34 34 33 34 33 33 33 32 33 33 34 34 35 35 36 36 37 38 39 39 40 40 41 41 42 42 42 43 44 44 44 45
39 38 38 39 38 38 38 37 37 36 35 35 35 35 35 35 34 34 33 34 34 35 35 36 36 37 37 38 39 40 40 41 41 42 42 42 43 43 44 44 45 45 45
39 40 39 40 40 39 39 39 39 39 37 36 36 37 37 37 36 35 35 35 35 36 36 36 37 37 38 39 40 40 40 41 42 43 43 43 43 44 44 45 45 46 46
39 39 40 42 41 41 41 41 41 40 39 38 38 38 38 39 37 37 37 36 36 36 36 37 38 38 39 40 40 40 41 41 42 43 43 43 44 45 45 45 46 47 47
41 41 40 41 42 42 43 42 41 41 40 40 39 39 39 38 38 37 37 37 36 36 37 38 39 39 39 40 40 41 41 42 43 43 44 44 45 46 46 47 47 48 48
42 42 42 42 43 43 43 43 43 42 41 40 39 39 39 38 37 37 37 37 36 36 37 38 39 39 40 41 41 41 42 44 44 45 45 46 46 47 47 48 49 49 49
41 40 40 41 41 42 42 43 43 42 41 41 40 40 40 39 39 38 38 37 37 38 38 40 40 40 41 42 42 42 43 44 45 45 46 47 47 48 48 49 49 49 49
41 40 39 39 39 40 41 41 41 41 40 40 40 40 40 41 41 40 39 38 39 39 40 40 41 41 41 42 43 43 44 44 44 45 46 46 47 47 48 49 50 50 49
41 40 39 39 39 40 40 40 40 41 41 42 41 41 41 41 41 41 40 40 40 40 40 40 41 42 42 42 42 43 43 44 45 45 46 46 47 47 48 48 49 49 48
42 41 39 39 39 40 40 41 41 41 42 42 43 43 42 42 41 41 41 41 41 41 40 40 41 42 42 42 42 43 44 44 44 45 45 46 47 47 48 48 49 49 48
43 42 41 40 41 41 41 41 41 41 41 41 42 43 43 42 41 41 41 41 40 40 40 40 41 42 42 43 43 44 44 44 44 45 46 47 48 48 48 49 49 48 47
44 43 43 43 43 42 42 42 42 42 42 42 41 41 43 42 41 41 41 40 40 40 40 40 42 43 43 43 44 44 44 45 45 46 47 47 48 48 49 48 48 47 45
43 43 43 43 42 42 42 42 42 41 42 41 41 41 41 40 40 40 40 40 39 39 39 40 41 42 42 43 44 44 44 45 46 47 48 48 48 48 48 47 46 45 45
42 42 42 42 41 41 41 41 41 41 42 42 42 42 41 40 40 40 39 38 38 39 39 39 40 41 42 43 42 43 43 44 45 47 47 47 48 48 47 47 46 44 43
40 41 40 40 40 40 41 41 42 41 41 41 41 40 40 39 38 38 38 38 38 38 39 38 39 41 41 41 41 42 43 44 45 46 46 47 47 48 47 45 44 42 42
41 41 41 41 41 40 40 39 40 40 40 39 39 38 37 37 37 37 37 38 38 39 39 39 38 39 39 39 40 41 42 43 45 46 46 47 47 46 45 43 42 41 42
40 40 40 39 39 39 38 38 38 38 38 37 37 37 37 37 37 37 38 38 38 38 39 38 38 38 38 39 40 41 41 42 44 44 45 46 45 44 42 41 40 40 40
37 38 38 38 38 37 37 37 37 36 36 36 36 36 36 36 36 37 37 37 37 37 38 38 38 38 39 40 40 41 41 42 42 43 44 43 42 41 39 39 38 38 37
36 36 36 36 36 37 37 37 36 36 36 36 36 36 36 36 36 36 37 36 37 37 37 38 38 38 39 39 40 40 41 42 41 42 41 40 39 38 37 36 36 36 35
36 36 36 36 36 36 37 37 37 37 37 36 36 36 36 36 37 37 37 37 37 37 37 37 37 38 39 40 40 40 41 41 40 39 37 36 36 35 35 34 34 34 34
36 36 36 36 36 36 37 37 37 38 37 36 36 36 36 36 37 37 37 37 36 37 37 37 37 38 40 40 40 40 40 39 38 36 35 34 33 32 32 32 31 32 32
35 36 36 37 37 36 36 36 36 36 35 35 35 36 36 36 35 36 36 36 36 37 37 37 38 38 38 38 38 37 36 35 34 34 34 33 31 30 30 30 29 29 29
35 36 36 36 35 35 35 35 34 34 34 34 35 35 35 35 35 35 35 35 35 35 35 35 36 36 36 36 35 34 34 33 32 31 31 30 30 29 27 27 28 28 28

GEFSMA_500_meanwind_270.txt.gz
Wind_Speed
34 33 32 31 31 32 32 32 33 32 33 33 32 32 32 31 31 30 30 30 30 30 30 31 31 32 32 32 32 33 34 34 35 36 36 36 36 37 38 39 40 40 41
35 34 33 33 32 33 33 34 34 34 34 34 34 34 33 33 33 32 32 32 31 31 32 32 32 33 33 33 34 35 35 36 36 37 37 37 38 39 39 40 41 42 42
37 37 36 35 34 33 34 35 35 35 35 35 35 35 35 34 34 34 34 34 33 33 33 33 33 34 34 35 35 36 36 36 37 37 37 38 39 40 40 41 42 43 44
38 38 38 37 36 35 35 36 36 36 37 37 37 36 36 35 35 35 35 35 35 35 35 35 35 35 36 36 36 36 36 37 38 38 39 39 40 41 41 42 43 45 46
40 39 40 39 38 38 38 38 38 37 38 38 38 37 37 37 36 36 36 37 37 37 36 36 36 36 36 36 36 36 37 39 39 39 40 41 42 42 43 44 45 46 47
41 40 39 40 40 40 40 40 40 40 39 39 39 38 38 38 38 38 38 38 38 38 37 37 37 37 36 36 37 38 39 40 40 40 42 43 43 44 44 45 46 48 48
41 41 41 41 41 40 40 41 41 41 41 40 40 39 39 39 39 39 39 39 38 39 38 37 37 36 37 37 38 39 41 41 42 43 43 43 44 45 46 47 48 49 49
42 42 41 41 41 41 40 41 41 41 41 41 40 40 40 40 40 40 40 40 39 40 39 38 38 37 38 39 39 40 41 42 43 43 43 44 45 46 47 48 49 50 51
43 42 42 41 41 41 40 41 41 41 40 40 40 40 40 41 40 40 40 40 40 40 40 39 39 39 39 39 41 41 42 42 42 43 43 45 45 46 47 49 50 50 50
44 42 41 40 40 40 41 40 40 40 40 40 40 40 41 41 40 40 40 41 40 39 39 40 39 40 40 41 42 42 41 42 43 44 44 45 46 47 48 49 50 49 48
45 44 43 40 40 40 39 39 40 40 40 40 40 41 41 40 40 41 41 41 40 39 39 39 39 40 41 41 42 42 42 42 43 44 44 46 47 48 48 49 49 49 48
46 44 42 42 41 41 40 40 41 41 40 41 41 41 41 41 41 41 40 40 40 39 40 40 40 41 41 41 41 42 43 43 44 45 45 46 47 48 48 48 49 49 48
44 43 43 42 42 41 40 40 41 41 41 42 43 42 42 41 40 41 41 40 40 40 40 40 40 40 40 41 41 42 43 43 44 45 45 46 47 47 47 48 48 47 47
42 43 43 43 42 41 41 41 41 41 42 42 43 43 42 42 41 41 41 41 41 41 40 39 39 40 40 41 41 42 41 42 43 44 45 46 47 46 47 47 47 46 46
41 43 43 43 42 42 42 41 40 41 42 43 43 43 43 42 41 41 41 41 41 41 40 39 39 39 40 40 41 42 42 43 43 44 45 46 46 46 46 46 46 46 45
40 40 41 41 41 41 41 40 40 40 40 41 42 43 43 42 41 41 41 41 40 40 39 38 39 39 40 40 41 41 42 43 44 44 45 45 45 45 45 45 45 44 43
39 39 39 39 39 39 39 39 39 40 40 40 39 41 41 41 41 41 40 40 40 40 39 39 40 41 40 40 41 41 42 42 43 44 44 44 44 43 43 43 42 42 42
39 39 39 38 38 38 39 40 40 40 39 39 38 39 40 40 40 40 40 40 39 40 40 40 40 41 41 41 41 42 42 42 43 43 44 44 43 42 41 41 41 41 40
37 37 38 38 38 37 37 38 38 38 38 38 39 38 38 38 38 38 39 38 38 39 40 40 40 40 41 41 42 42 42 42 43 43 43 42 40 39 39 39 39 39 39
34 34 35 36 36 35 35 36 36 37 36 37 37 37 38 38 37 36 37 36 37 38 38 38 39 39 39 40 40 41 41 41 42 42 42 40 39 39 38 38 38 38 38
33 33 35 35 35 35 36 36 37 36 35 35 35 36 37 37 37 36 35 36 36 36 37 37 37 37 37 37 38 39 39 40 41 40 39 39 39 38 37 37 37 37 37
34 33 34 34 34 35 35 35 35 36 35 35 35 36 36 36 35 35 35 35 36 35 35 36 36 36 36 36 36 37 37 37 37 37 36 36 37 37 37 37 36 35 34
34 34 34 34 36 36 36 35 36 35 35 35 35 35 35 35 35 35 35 35 35 34 35 35 35 36 36 36 35 35 35 35 34 34 34 34 35 35 35 34 33 32 33
33 34 34 34 34 34 35 36 36 36 36 36 35 35 35 34 34 34 35 35 34 34 34 35 35 36 35 35 34 33 32 32 32 33 33 32 33 33 33 32 32 32 31
33 33 34 33 34 35 35 36 36 36 35 35 35 34 33 32 33 33 34 34 33 34 34 34 33 32 33 33 32 32 31 31 31 31 31 31 31 31 30 30 30 30 29
31 32 32 33 33 34 35 36 35 35 35 35 34 33 33 32 32 32 32 32 33 33 32 31 31 31 31 31 31 30 30 30 30 30 31 31 30 29 28 28 28 28 28

GEFSMA_500_meanwind_276.txt.gz
Wind_Speed
32 33 33 32 32 32 32 32 32 32 31 31 31 32 32 32 32 33 33 33 33 33 33 33 33 33 33 33 33 33 33 34 34 35 35 36 36 37 37 38 39 40 41
33 33 34 34 34 34 34 33 33 33 32 32 32 32 32 33 34 34 34 34 35 35 35 35 35 35 35 35 35 35 35 36 36 36 37 37 38 38 39 40 41 42 43
36 34 35 36 36 36 35 35 35 34 34 34 33 34 34 34 34 35 36 36 36 36 36 36 36 36 36 36 36 37 37 37 37 38 38 39 39 40 41 41 42 43 44
38 37 36 37 38 38 38 37 37 36 36 36 35 35 36 36 35 36 36 36 36 36 36 36 36 36 37 37 38 38 38 38 39 39 40 40 41 41 41 42 43 44 45
39 40 39 39 39 40 39 38 38 37 37 37 36 37 37 36 37 37 37 37 37 37 37 37 37 37 38 39 39 39 39 40 40 41 41 41 42 42 42 43 44 45 45
42 42 42 42 41 41 40 40 40 39 38 38 38 39 38 38 38 38 37 37 38 38 39 38 39 39 40 41 40 40 41 41 41 42 42 42 43 43 44 44 44 46 46
43 43 42 43 43 41 41 40 40 39 40 39 39 40 39 39 38 38 38 38 38 39 40 40 39 40 41 41 41 41 41 41 41 42 42 43 44 45 45 45 46 46 46
44 44 43 42 41 40 41 41 41 41 42 41 40 40 39 38 38 38 38 38 39 40 40 40 40 41 41 42 42 41 41 41 42 43 44 44 45 45 45 46 46 45 46
44 44 44 43 43 42 41 41 41 41 41 41 40 41 40 38 38 38 39 39 39 40 40 40 41 42 42 42 42 41 41 41 42 42 43 44 45 45 46 47 47 46 47
45 45 45 45 44 43 42 42 41 41 41 41 41 41 41 40 40 39 39 40 40 39 40 40 41 42 42 42 42 42 41 41 42 42 43 43 44 45 47 47 47 47 47
46 46 46 46 45 44 44 44 42 42 42 41 40 39 40 41 41 41 40 39 40 39 39 40 41 42 43 42 42 42 41 41 41 42 43 44 45 46 48 48 48 48 48
46 48 48 47 46 44 44 44 43 42 41 41 39 39 41 41 41 41 40 40 40 39 39 40 41 43 44 43 42 42 41 41 41 42 44 45 45 47 48 49 49 49 48
44 45 46 45 45 44 44 45 44 44 43 41 40 40 41 41 41 41 41 40 40 40 40 41 42 43 43 44 43 42 41 42 43 42 44 45 46 47 49 50 49 49 47
43 43 43 44 44 43 43 44 44 43 42 41 41 41 41 40 40 40 40 40 40 40 41 42 42 43 43 43 43 43 42 43 44 44 45 47 47 47 48 48 48 47 47
42 42 42 42 41 41 42 43 43 42 41 41 40 40 40 39 40 40 41 42 42 42 41 40 41 41 42 42 42 43 43 43 44 44 46 46 47 47 47 46 46 46 47
39 40 39 40 40 41 42 42 43 42 41 40 40 40 39 40 40 41 42 42 42 42 41 40 40 41 41 41 42 42 43 43 42 43 45 46 47 47 47 46 46 46 46
39 40 39 39 39 39 40 42 42 41 40 40 40 40 40 40 41 42 42 42 42 42 41 40 40 40 40 41 41 42 43 43 42 42 44 45 45 45 45 45 45 44 44
40 39 37 38 38 38 39 40 40 40 40 40 41 41 41 40 41 42 42 42 42 41 40 39 40 39 39 40 40 41 42 43 43 42 42 42 43 44 44 44 43 42 43
40 40 37 36 36 36 37 39 39 39 40 40 41 41 41 42 42 42 42 41 39 38 38 38 38 39 39 40 40 40 41 42 41 40 40 41 41 42 42 41 41 41 41
38 37 37 35 35 35 36 36 37 37 38 39 39 39 40 40 40 40 40 39 37 38 39 39 38 39 39 39 40 39 39 38 38 39 40 40 40 40 40 39 39 39 39
36 36 37 36 36 35 35 35 36 37 36 36 37 38 38 38 37 37 38 38 37 37 38 38 38 38 38 39 38 37 38 37 37 38 39 39 38 38 38 37 36 36 35
34 33 34 35 35 34 35 35 36 37 36 36 36 37 38 37 37 37 36 36 36 36 36 36 36 37 37 37 37 36 36 36 36 36 36 36 36 36 35 34 34 34 33
32 32 33 33 33 33 35 36 35 35 35 35 36 36 37 37 36 35 36 36 36 36 36 36 36 36 36 36 36 36 35 36 35 35 34 34 33 33 33 33 32 32 32
32 31 32 32 32 33 33 34 34 35 34 34 35 35 35 35 35 36 36 35 35 36 36 35 34 34 34 34 34 34 33 34 34 33 34 33 31 30 31 31 30 30 30
32 31 31 32 32 32 32 33 34 33 32 33 33 33 34 35 35 35 35 34 33 34 34 32 32 31 31 32 32 32 32 32 31 31 32 31 29 28 29 29 29 29 29
31 31 31 31 31 31 31 32 32 32 32 32 33 33 34 34 34 33 33 33 32 32 31 29 29 30 30 31 31 31 31 30 30 30 30 29 28 27 26 26 27 28 28

GEFSMA_500_meanwind_282.txt.gz
Wind_Speed
35 35 34 34 33 33 32 33 33 32 32 32 32 32 33 33 33 32 31 32 33 33 33 33 33 33 33 33 33 34 34 34 34 34 35 35 36 36 37 38 38 39 40
37 36 36 36 36 35 35 34 34 34 34 34 34 34 33 33 33 33 33 33 34 34 33 33 33 34 34 34 34 35 34 35 35 35 37 37 38 38 39 39 40 40 41
39 38 38 38 38 38 38 37 36 36 36 35 35 35 35 34 34 34 34 34 34 34 34 34 34 35 35 36 36 36 36 36 36 36 37 39 39 40 40 41 41 42 43
41 40 38 38 39 40 39 39 39 38 38 37 37 37 36 35 34 35 34 35 35 35 35 35 35 35 36 37 37 37 38 39 39 39 39 40 40 41 42 42 43 43 44
42 41 40 40 40 40 40 41 41 40 39 39 38 37 37 36 36 35 35 35 35 35 36 36 36 37 37 38 39 39 40 40 41 41 41 41 42 42 43 43 44 45 45
44 43 42 41 40 41 41 40 41 41 40 39 39 38 38 37 37 37 36 35 35 36 37 37 37 38 38 39 40 41 42 42 42 43 43 43 43 43 43 44 45 45 46
45 45 44 44 42 41 41 40 40 41 42 40 39 39 39 39 39 37 36 36 36 37 37 38 39 39 39 41 42 42 43 43 44 44 44 44 44 44 44 44 45 46 47
46 45 44 45 45 44 43 41 41 42 42 41 41 40 40 40 40 39 38 38 37 38 39 39 40 40 41 42 42 43 44 44 44 44 44 43 45 45 45 46 47 48 48
46 46 46 46 46 45 45 44 43 43 42 41 41 41 41 41 39 39 39 39 39 40 41 41 41 41 42 42 43 44 44 44 44 44 44 44 45 46 46 46 47 48 49
47 47 47 47 46 46 45 46 45 44 43 42 42 42 42 41 41 39 40 41 41 41 42 42 41 42 42 43 43 43 44 44 45 45 45 45 46 46 46 46 47 48 49
47 47 47 46 46 46 46 46 47 46 44 44 43 43 43 42 42 41 41 41 41 41 41 41 41 42 42 42 42 43 44 44 45 45 45 46 47 46 47 47 48 49 49
49 49 48 48 47 46 46 46 47 46 44 45 45 44 44 43 43 43 42 41 41 41 41 40 41 42 42 42 42 43 44 45 45 45 45 46 46 47 48 48 49 49 49
49 49 48 49 48 47 46 45 46 46 45 44 43 43 43 42 43 43 43 42 41 41 40 41 42 42 41 42 43 43 44 44 44 44 45 46 46 47 48 48 49 49 48
47 47 46 46 47 47 47 46 46 44 43 43 42 42 42 42 42 43 42 41 41 41 41 42 42 41 42 42 42 42 42 43 43 43 44 46 47 48 48 48 49 48 48
45 46 45 45 45 45 45 45 44 43 41 41 41 41 40 40 40 41 41 41 41 41 41 41 41 42 42 42 42 42 42 42 42 43 45 46 46 47 47 47 47 47 46
42 42 42 42 42 42 42 43 43 41 41 41 41 40 40 40 39 39 40 40 40 41 41 41 41 42 42 42 42 41 41 42 42 43 44 45 45 45 46 46 46 45 44
40 40 39 38 39 39 40 40 41 40 40 41 40 40 39 38 38 39 39 39 40 40 40 40 41 42 43 43 42 42 43 43 42 43 43 44 43 44 44 44 44 44 43
39 39 39 37 37 37 38 37 39 39 39 39 39 39 38 39 38 39 40 40 40 40 40 40 40 41 41 41 42 43 42 42 42 41 41 41 42 43 43 42 43 42 40
36 37 38 38 36 35 34 34 35 37 37 37 37 37 37 37 37 38 38 39 40 40 39 40 41 41 41 41 42 42 42 41 40 39 39 41 41 42 41 41 41 40 38
35 35 36 36 35 34 32 32 34 35 35 36 36 37 37 37 37 37 38 39 38 39 39 39 39 40 40 40 40 40 40 39 39 39 39 40 40 40 40 40 39 38 37
34 34 35 34 33 33 32 32 33 33 34 35 35 36 36 36 37 37 37 38 38 37 37 38 39 40 39 39 39 38 38 38 38 38 38 38 39 39 39 38 37 37 36
33 33 33 32 32 32 32 33 33 33 33 33 34 35 35 35 36 36 37 37 37 36 36 38 38 38 38 38 37 36 36 37 37 37 37 37 38 37 37 36 36 35 33
31 32 32 31 30 30 32 32 33 33 33 33 34 34 34 35 35 35 35 35 34 34 36 37 36 36 35 35 35 34 34 35 35 35 36 37 36 36 36 35 34 33 32
29 31 31 31 31 31 31 31 32 32 33 33 32 32 32 33 33 33 32 32 32 33 34 34 35 34 34 33 33 33 33 34 34 34 35 34 34 34 34 33 31 31 30
27 28 30 30 30 29 29 30 31 31 31 30 30 31 31 32 31 30 30 30 30 31 31 31 31 31 30 31 31 31 32 33 33 34 34 33 31 32 32 31 30 29 29
26 28 29 29 29 30 30 30 31 29 29 30 30 30 30 28 28 28 28 29 29 29 30 30 30 30 30 29 29 30 31 32 32 31 31 30 30 30 29 29 28 28 28

GEFSMA_500_meanwind_288.txt.gz
Wind_Speed
36 36 36 36 37 36 36 36 35 34 34 34 34 34 33 33 33 33 34 34 34 34 34 34 34 34 33 33 32 32 33 33 34 35 35 36 36 36 37 38 38 39 40
39 39 38 38 38 37 37 37 37 37 36 37 36 36 35 35 35 34 34 34 34 35 35 35 36 35 35 34 34 34 34 35 36 37 37 38 38 39 39 40 40 41 42
41 41 40 40 39 39 39 39 38 38 38 38 38 38 37 37 37 36 35 36 36 36 36 37 37 36 36 36 36 36 36 37 38 39 39 40 40 41 41 41 42 43 43
43 43 42 42 42 41 41 40 40 41 40 40 40 39 39 39 40 40 38 38 37 38 38 38 38 37 37 38 38 38 38 39 40 40 40 41 42 42 42 42 43 44 44
45 44 44 44 44 44 43 43 43 43 42 42 42 41 41 41 41 41 40 39 39 39 39 39 39 38 39 39 40 40 40 41 42 42 42 43 43 43 43 44 44 45 45
46 46 46 46 46 45 45 45 44 44 44 43 43 43 43 43 43 43 42 41 40 40 40 40 40 39 40 41 41 41 42 43 43 43 43 43 44 44 44 44 44 44 45
48 47 48 48 48 47 46 46 46 45 45 45 45 44 44 44 44 44 43 42 42 42 41 41 41 40 40 41 41 42 43 43 43 43 43 43 43 44 45 45 45 44 45
49 49 49 49 48 48 47 47 47 46 46 46 46 46 46 45 45 45 44 44 43 43 42 42 42 41 40 41 42 42 42 43 43 42 43 43 44 44 44 45 46 46 47
49 50 50 50 50 49 48 48 48 48 47 48 48 48 47 46 46 45 45 44 44 43 42 42 41 41 41 42 42 42 42 43 42 43 44 44 44 45 45 46 47 48 48
50 51 51 51 51 50 50 49 48 48 47 47 48 48 48 47 47 46 44 44 44 43 43 42 41 41 41 41 42 43 43 43 43 43 44 44 45 45 46 47 48 49 50
50 51 52 52 51 51 50 50 49 47 47 47 47 47 47 46 46 46 43 43 43 43 43 42 42 42 41 42 42 43 43 44 44 44 45 45 45 46 46 47 49 50 51
49 50 51 50 50 49 49 49 48 47 48 48 47 46 45 46 45 45 44 43 43 43 43 43 42 42 42 42 43 43 44 44 44 45 46 46 46 46 47 48 50 50 49
49 50 50 49 48 47 48 48 48 47 46 46 45 45 43 44 43 43 43 42 43 43 42 41 40 41 41 42 43 43 43 44 44 45 46 46 46 47 48 49 49 49 49
47 48 49 48 47 47 47 48 47 46 45 44 43 43 43 42 41 41 41 41 41 42 42 40 40 40 41 41 42 43 43 44 45 46 46 47 48 48 49 49 49 48 48
45 47 46 45 46 46 46 46 45 44 44 43 42 42 42 41 41 41 42 42 41 41 40 40 40 41 41 41 43 43 43 44 45 46 47 48 48 48 48 48 48 47 47
43 43 43 44 45 44 44 44 42 42 42 42 42 42 43 42 41 42 42 42 41 39 38 39 40 41 40 41 42 43 44 46 46 47 47 48 48 48 48 47 47 46 46
42 41 41 41 42 42 41 41 41 40 40 40 41 42 41 40 41 41 41 40 40 39 38 38 40 40 40 41 42 43 44 45 45 46 46 46 46 47 47 47 46 46 45
40 41 40 39 37 38 39 38 38 38 38 38 39 40 39 40 40 39 40 40 39 38 38 38 38 38 39 40 41 42 43 43 43 44 44 44 45 46 46 45 44 44 44
39 39 37 36 35 35 34 35 35 35 36 37 36 36 38 39 39 39 39 38 37 37 38 38 38 38 38 39 39 40 40 41 41 41 41 42 42 43 43 42 42 43 43
35 35 34 33 33 32 33 33 32 31 33 35 35 35 35 35 36 36 36 36 37 38 38 38 38 38 38 39 39 39 38 38 39 40 40 40 41 41 41 41 41 41 41
32 32 32 31 31 31 31 30 30 30 30 32 33 33 32 32 33 33 33 33 35 36 37 37 37 36 37 37 37 37 37 37 37 38 39 40 41 41 40 40 40 40 38
30 30 31 31 31 31 31 30 30 30 30 29 29 30 31 31 31 31 31 32 33 34 35 35 35 36 36 36 36 36 35 36 36 37 38 39 39 38 37 38 38 37 36
29 28 28 30 30 30 29 29 29 29 29 29 29 29 29 29 30 32 31 31 32 33 33 32 32 33 34 34 34 34 34 34 35 36 37 36 35 34 35 34 34 33 33
26 27 28 28 29 28 29 29 29 28 28 29 29 27 27 28 29 30 30 30 29 29 28 29 30 30 31 31 31 32 33 33 34 35 34 33 32 32 31 31 31 30 30
26 27 27 28 27 27 27 28 28 28 28 28 28 26 27 27 28 29 29 28 28 28 28 28 28 29 30 30 30 30 32 33 32 32 31 30 29 29 29 28 29 29 29
24 25 25 25 25 26 27 27 27 27 27 26 27 26 26 26 27 28 28 28 28 28 28 27 28 28 28 28 29 30 30 30 30 29 28 28 28 28 27 27 27 28 28

GEFSMA_500_meanwind_294.txt.gz
Wind_Speed
38 39 39 38 38 38 37 37 37 37 38 38 38 38 38 38 38 38 38 37 37 37 37 36 37 37 37 37 36 37 37 37 37 37 37 37 37 38 39 39 39 39 39
40 40 40 40 39 40 39 39 39 39 40 40 40 40 40 40 40 40 40 40 40 40 40 39 39 39 39 39 39 38 39 39 40 40 39 39 40 40 41 40 40 40 39
41 41 41 41 41 41 41 41 41 42 42 42 41 41 41 42 42 41 41 41 41 41 42 42 41 41 40 40 41 41 41 41 41 41 41 41 42 42 41 41 41 41 41
41 42 42 42 42 42 42 43 43 43 44 44 43 43 44 44 44 43 43 43 42 42 43 42 43 42 42 42 43 43 43 43 43 42 42 42 43 42 42 42 42 42 42
43 43 43 44 44 45 45 45 45 45 45 45 44 45 45 45 44 44 44 44 44 44 44 44 44 44 44 44 44 44 44 44 44 44 44 44 43 43 43 43 43 43 43
45 45 45 45 46 46 47 47 47 47 47 47 46 46 46 45 45 45 45 45 45 45 45 45 45 45 45 45 46 45 45 45 45 45 45 44 44 44 44 44 44 44 44
47 47 47 47 48 48 48 49 49 49 49 49 48 48 47 47 47 47 47 47 47 46 46 46 47 47 47 47 47 46 46 46 46 46 45 45 45 45 45 45 45 45 46
49 49 49 49 49 50 50 51 51 51 50 50 50 49 49 49 48 48 48 47 47 48 48 47 47 47 47 48 47 47 47 46 46 46 46 46 46 45 46 46 46 46 46
50 51 51 50 51 52 52 53 52 52 51 51 51 51 51 50 48 47 47 48 48 47 47 47 47 47 47 47 48 47 47 46 46 46 46 47 46 46 46 46 46 46 47
51 52 52 51 52 52 53 53 52 52 52 51 51 51 51 50 49 48 48 48 47 46 46 47 46 46 46 46 46 46 46 46 46 47 47 47 46 46 46 46 47 47 48
52 51 50 51 51 52 52 51 51 51 50 50 50 50 51 50 49 49 47 47 47 46 46 46 45 45 46 45 44 45 44 45 45 45 46 46 46 47 47 47 48 49 50
50 51 49 49 50 50 50 50 50 50 49 48 48 48 49 49 48 48 47 46 46 46 45 44 43 43 43 44 44 43 43 44 45 45 45 46 46 46 47 47 49 50 50
49 49 49 49 49 49 49 49 48 48 47 47 46 46 47 47 47 47 47 46 45 44 44 43 43 42 42 42 42 43 43 44 45 45 44 45 45 46 46 47 49 49 49
49 48 48 47 48 48 48 47 46 46 46 46 45 46 45 44 44 43 44 44 45 44 44 43 42 42 42 41 41 41 41 43 44 45 44 44 45 45 45 46 47 47 47
47 47 46 46 46 46 46 46 46 45 45 45 44 43 42 41 41 41 41 42 43 43 41 41 40 40 40 39 40 40 41 42 44 44 44 44 44 44 45 45 46 47 47
44 45 45 45 45 46 46 46 45 44 43 43 42 40 39 40 40 40 41 42 41 41 41 40 39 38 38 38 38 39 40 41 42 42 42 43 44 45 45 45 46 45 45
44 45 44 44 44 43 43 43 43 43 42 41 41 40 39 39 39 39 40 40 41 41 41 39 38 37 37 37 37 38 39 40 41 41 42 42 43 43 43 44 45 44 44
42 42 42 43 42 43 42 41 41 39 40 39 39 38 37 37 37 37 39 39 38 37 37 37 36 37 36 37 37 38 39 40 40 40 40 41 42 43 43 44 45 44 43
39 40 41 40 39 40 40 39 39 37 37 37 37 36 36 36 36 36 36 36 36 36 35 35 35 35 36 36 37 37 37 38 38 39 39 40 40 41 42 42 42 41 41
37 38 38 38 37 37 37 38 37 37 36 35 34 33 33 33 34 34 34 34 34 34 34 33 34 34 34 35 36 36 36 35 36 36 37 37 38 39 40 39 40 39 39
35 36 35 35 36 36 36 36 36 37 37 35 34 33 32 31 31 32 32 32 31 31 32 33 33 33 33 34 34 33 34 33 33 35 35 36 38 38 38 38 38 37 37
33 33 32 32 33 34 34 33 34 34 35 34 33 32 31 30 30 29 30 31 30 30 31 31 31 32 34 35 34 33 32 33 33 34 35 35 36 36 36 36 35 35 34
31 30 30 31 31 31 32 33 32 31 31 31 31 31 30 30 29 29 29 30 30 31 31 29 29 31 32 33 32 33 33 33 33 34 34 33 33 34 34 33 34 33 32
29 29 29 29 29 30 31 31 31 31 30 29 29 29 30 30 29 29 30 30 30 30 30 29 30 30 30 30 30 31 31 31 31 32 32 32 31 31 31 31 31 31 30
26 26 26 26 26 26 27 28 28 28 28 27 27 28 29 28 28 29 29 29 28 27 27 28 28 29 29 29 29 29 29 29 29 30 30 30 29 29 29 29 29 29 29
23 24 24 25 25 26 27 27 26 25 26 26 27 27 27 26 27 28 27 26 26 25 25 26 27 27 26 26 26 27 28 28 28 28 28 29 29 29 29 28 28 29 29

GEFSMA_500_meanwind_300.txt.gz
Wind_Speed
36 36 36 36 36 37 37 37 37 37 37 37 38 38 37 38 38 39 39 39 39 39 39 39 39 39 39 40 40 40 40 39 39 40 40 40 40 40 40 40 40 40 40
38 37 37 37 38 38 38 38 38 38 39 39 39 39 39 39 39 40 40 40 41 41 41 41 41 42 42 43 42 41 41 41 41 41 42 42 42 42 42 42 42 42 42
39 38 39 39 40 40 40 40 40 39 40 40 41 41 41 40 40 41 42 42 43 43 43 43 43 44 44 44 44 44 44 43 43 43 43 43 43 43 43 43 43 43 43
40 40 40 40 41 42 41 41 41 41 41 41 41 41 42 43 43 44 45 45 45 45 45 45 45 45 45 45 45 45 45 45 45 45 44 44 44 44 44 44 43 44 44
42 42 42 42 42 42 43 42 43 43 43 43 42 43 43 44 45 46 46 47 47 47 47 47 47 47 47 47 47 47 47 47 47 46 46 45 44 44 44 44 44 45 45
43 43 43 44 43 44 44 44 45 45 45 45 45 45 45 46 47 47 48 48 49 49 49 49 49 49 48 48 48 48 48 48 47 46 46 45 45 44 45 45 45 45 44
45 44 44 44 44 45 45 46 46 46 47 47 47 47 47 48 48 48 49 49 50 50 50 50 50 49 50 50 50 49 48 48 47 46 46 46 46 46 45 46 45 45 45
46 46 45 46 46 46 47 47 47 47 48 49 49 49 49 49 49 49 49 50 50 51 51 50 50 50 50 50 49 48 47 47 47 46 47 46 46 46 46 46 46 46 45
48 47 47 48 47 47 48 48 48 49 49 50 51 51 50 50 49 49 49 49 51 51 50 50 50 50 50 49 48 47 47 47 46 46 47 46 47 47 47 46 47 46 46
50 50 50 50 50 50 50 49 48 49 50 51 51 51 51 51 51 49 48 48 49 49 49 50 50 50 49 48 48 48 47 47 47 47 47 47 47 47 47 47 47 47 47
51 51 51 52 51 51 51 51 51 51 51 51 52 52 51 50 50 50 47 46 46 47 47 47 48 49 49 49 48 47 47 47 47 47 47 47 47 48 48 47 48 48 48
51 52 52 53 53 52 53 53 52 53 52 52 52 51 51 50 49 49 48 46 46 46 47 46 46 47 47 47 46 46 46 46 46 46 47 47 48 48 47 47 48 48 48
51 51 52 53 54 53 54 54 54 54 53 52 51 51 51 50 49 48 47 46 46 45 45 46 45 45 46 46 45 45 46 46 45 45 45 45 46 47 46 46 47 48 47
51 51 52 53 53 53 53 53 53 53 53 52 51 50 49 48 48 47 47 47 45 44 44 44 44 44 44 44 44 44 44 44 44 43 44 44 44 45 45 46 46 46 46
52 52 52 52 51 51 50 51 50 51 50 50 49 48 47 46 45 46 46 45 44 43 42 42 42 41 41 41 41 43 45 45 44 43 44 44 44 44 44 45 45 45 44
51 51 51 51 50 50 49 49 49 48 47 47 47 47 46 45 45 44 44 44 43 42 41 40 40 39 39 39 40 41 43 44 43 44 43 43 43 42 43 43 43 43 42
50 50 49 49 48 48 48 48 47 45 46 45 45 45 44 43 44 43 43 42 42 40 39 38 38 38 36 37 37 37 38 39 40 41 42 42 41 41 40 41 42 41 41
47 48 48 48 48 48 47 46 45 44 44 43 43 43 42 42 42 42 41 40 39 38 38 38 37 35 35 35 36 36 37 36 38 39 41 41 41 40 40 40 40 40 39
44 46 47 47 46 46 46 45 44 42 41 41 41 42 41 41 41 40 39 38 38 37 37 37 36 36 35 36 35 36 36 36 38 37 38 38 38 38 39 39 39 39 39
42 44 45 45 45 44 43 43 43 41 40 40 39 38 38 38 38 37 37 37 37 36 35 35 35 35 35 35 35 35 35 36 35 35 35 36 37 36 36 36 37 36 37
39 41 42 42 42 43 43 41 41 40 39 38 38 37 37 37 37 37 37 36 36 36 35 34 35 34 34 33 33 33 34 34 34 34 34 33 35 34 33 34 34 34 35
36 37 37 38 39 40 42 41 40 39 38 37 37 37 37 36 36 37 35 34 34 34 34 34 33 33 33 34 34 33 33 33 32 32 32 31 32 32 32 32 32 32 33
32 31 32 34 35 37 38 37 37 38 37 36 36 36 35 35 35 34 33 33 33 33 32 32 31 31 31 32 32 31 30 30 30 30 30 30 30 31 31 32 32 31 31
30 30 30 31 31 32 33 32 33 33 34 34 34 34 33 32 31 31 31 31 31 31 29 29 30 30 30 30 29 28 27 26 26 26 27 27 27 29 30 30 29 27 28
28 29 29 29 30 30 29 29 29 30 30 31 32 31 31 31 30 30 29 29 29 30 30 29 30 29 29 28 27 26 25 25 24 24 24 25 25 27 28 28 26 26 27
26 26 27 27 27 26 26 27 28 28 28 29 29 29 29 29 29 28 27 27 28 29 29 29 28 28 27 25 25 24 23 24 24 24 23 24 25 25 25 24 24 24 26

GEFSMA_500_meanwind_306.txt.gz
Wind_Speed
36 35 35 35 34 34 34 34 34 34 34 34 34 35 35 36 36 37 37 37 37 37 37 37 37 37 38 38 40 41 41 41 41 41 40 39 40 40 40 40 39 39 39
37 37 36 36 36 35 36 36 36 36 36 36 36 36 36 37 37 37 37 38 38 38 39 39 40 40 41 41 41 41 42 42 42 42 41 41 41 41 41 40 40 40 40
38 37 37 36 36 37 37 37 37 37 38 38 38 38 39 39 40 40 40 40 40 40 40 41 41 42 42 42 42 43 43 44 44 44 44 44 43 43 42 42 41 42 42
40 39 39 38 38 38 39 39 39 39 40 40 40 41 41 41 41 42 42 42 42 42 43 44 44 44 44 45 45 45 45 45 45 46 45 45 45 45 44 44 43 43 43
40 41 40 40 40 41 41 41 41 41 41 41 42 42 42 42 43 43 44 44 45 45 45 46 46 47 47 47 47 47 47 47 47 47 47 47 46 46 45 45 45 45 45
42 41 42 43 43 43 43 43 43 43 43 43 43 44 44 45 45 45 46 47 48 48 48 48 48 49 49 49 49 49 49 49 50 49 49 49 48 47 46 47 47 46 46
44 44 44 44 44 44 45 45 45 45 44 44 46 46 46 46 46 47 48 49 49 49 49 49 50 50 50 50 50 51 51 51 51 51 51 50 49 49 48 48 49 48 48
46 46 46 46 46 46 46 46 47 46 46 47 47 47 47 47 47 48 48 49 49 50 50 50 50 50 50 50 50 51 51 51 51 51 51 51 50 51 50 50 49 49 49
49 49 48 48 47 47 47 48 48 48 48 48 49 48 49 48 47 47 47 48 49 49 49 49 49 50 50 50 50 50 51 51 51 51 50 50 51 51 51 51 51 50 50
49 49 49 49 48 48 49 49 50 50 50 49 49 50 50 50 49 48 47 48 48 49 49 49 49 50 50 50 51 51 51 51 51 51 50 51 51 51 51 51 51 51 51
49 49 49 50 50 51 50 51 51 51 51 51 50 51 51 50 50 50 48 47 48 48 49 50 51 51 51 50 50 51 51 51 51 51 51 51 51 51 51 51 51 51 51
49 49 49 50 51 51 51 51 51 51 51 51 51 51 52 51 50 49 49 48 48 49 49 50 51 51 51 51 51 51 50 50 50 50 50 50 50 51 51 51 51 51 51
50 51 51 51 51 51 51 50 50 50 51 51 51 51 51 52 51 51 50 49 49 48 49 49 50 51 51 51 50 49 48 48 48 48 48 49 49 50 51 51 50 50 51
51 50 51 51 51 51 51 50 50 51 51 51 51 51 51 51 51 51 50 50 49 48 47 48 49 50 50 50 48 47 47 47 46 47 47 48 48 48 48 49 49 50 49
51 51 51 51 51 51 52 51 51 51 51 51 52 51 50 51 50 50 50 50 49 48 46 46 47 47 47 47 46 45 44 44 45 45 45 45 46 47 48 47 48 48 47
51 51 52 51 51 51 52 52 51 51 52 52 52 52 52 51 51 50 49 48 47 46 45 44 45 43 43 43 43 42 42 42 42 42 43 44 45 45 45 46 46 46 46
49 50 51 51 51 51 52 51 51 51 51 52 53 52 51 51 51 50 49 47 46 45 44 43 42 40 41 42 42 41 40 40 39 39 39 40 40 42 43 43 44 44 44
46 47 48 49 50 51 51 51 51 51 51 50 51 51 51 50 50 49 48 46 46 45 44 42 41 40 39 40 39 38 38 37 36 36 36 37 38 38 39 40 40 41 41
44 44 45 46 48 49 50 50 50 50 50 50 50 50 49 49 48 48 47 46 45 44 43 41 40 39 38 37 37 35 34 34 34 34 35 36 36 35 35 37 37 36 37
41 41 41 43 45 46 47 48 49 49 49 48 48 47 46 46 46 45 44 44 43 41 40 39 39 38 36 35 34 32 32 32 32 32 33 34 34 33 32 33 34 34 34
38 38 39 39 40 42 43 44 45 46 46 46 45 44 44 43 42 41 40 39 39 37 37 37 37 36 34 33 32 31 32 32 32 33 32 33 32 32 31 31 31 32 32
37 37 37 37 38 39 38 39 40 41 41 41 42 42 41 40 39 38 37 36 35 35 35 35 34 33 32 31 31 31 31 31 31 31 31 30 31 30 29 28 28 29 29
35 36 36 35 36 35 35 35 36 37 37 37 38 38 37 36 35 34 34 33 33 33 33 33 32 32 31 31 31 30 30 30 29 28 28 27 27 27 27 26 27 27 27
33 33 33 32 32 32 32 33 33 33 33 34 33 33 32 32 31 31 30 30 30 30 30 29 30 30 30 30 30 29 28 27 26 26 25 24 24 25 26 25 25 25 26
29 29 28 27 27 28 28 28 29 29 29 29 29 29 29 29 28 28 27 27 27 27 26 26 26 27 29 29 29 28 28 27 26 25 25 24 24 24 24 24 24 24 24
26 25 25 25 25 25 25 25 27 27 27 26 26 26 25 25 25 25 25 25 24 24 24 24 24 25 27 27 27 27 26 26 25 25 24 22 22 22 23 23 24 24 23

GEFSMA_500_meanwind_312.txt.gz
Wind_Speed
36 36 35 35 35 34 34 34 34 34 34 34 34 34 34 34 33 34 34 34 35 35 35 35 36 36 37 37 38 38 38 38 38 38 38 39 39 38 38 38 38 39 39
38 37 37 36 36 36 36 35 35 35 35 35 35 35 36 36 36 36 36 36 37 37 37 36 37 37 38 38 39 40 40 40 41 40 39 39 40 40 40 40 40 40 40
38 38 38 38 38 37 37 36 36 37 37 36 36 36 37 37 37 37 37 38 38 38 38 39 39 39 39 40 41 41 42 43 43 42 42 41 41 41 41 42 41 42 42
40 40 40 40 39 39 39 38 38 38 38 38 39 39 39 39 39 38 39 39 39 39 40 40 41 41 42 43 43 44 44 44 44 44 44 44 44 44 44 44 44 44 44
41 41 41 41 41 41 41 40 40 41 40 40 40 40 40 40 40 40 40 41 41 41 42 42 43 43 44 45 45 45 45 45 45 46 46 46 47 47 47 47 46 46 46
42 42 43 43 43 43 43 43 43 43 43 42 43 43 43 43 43 43 42 42 43 42 43 44 45 46 46 47 47 47 47 47 47 48 48 49 49 49 49 49 48 48 47
42 43 43 44 44 45 45 45 45 45 45 45 45 45 44 44 45 45 44 44 44 45 46 47 47 48 48 48 48 49 49 49 49 49 50 50 50 50 50 50 50 49 49
44 44 44 45 46 47 48 47 47 47 47 46 46 46 46 45 45 45 46 45 45 46 47 47 48 48 49 48 48 49 49 49 50 51 51 51 51 51 51 51 51 50 50
45 46 46 47 48 49 49 49 49 49 49 48 48 48 48 47 46 45 46 46 46 46 47 47 47 48 48 48 48 48 49 50 50 51 51 51 52 52 52 51 51 51 51
46 46 47 48 48 49 50 50 50 50 50 50 49 49 49 49 48 47 46 46 47 46 46 46 47 47 48 48 48 49 49 49 50 50 51 51 51 51 52 52 51 51 51
48 48 47 48 48 48 49 50 50 50 51 51 50 49 50 50 50 49 48 47 47 47 47 46 46 46 47 48 49 49 50 51 50 51 51 51 51 51 51 51 51 51 51
49 49 49 49 49 49 50 50 51 51 50 50 50 50 50 51 51 50 50 49 49 48 47 47 46 47 47 49 49 49 50 51 52 52 52 53 52 52 52 52 52 51 51
51 52 51 51 51 51 51 51 51 51 51 51 50 50 51 51 51 51 50 50 49 48 47 47 48 49 49 48 49 50 50 50 51 52 53 53 52 52 53 51 51 50 50
51 52 53 52 51 52 52 52 52 52 52 51 52 52 51 51 50 50 50 50 49 48 48 48 49 49 49 49 49 49 49 50 50 51 51 50 50 50 50 49 49 48 49
50 51 51 51 51 51 52 52 52 52 52 52 52 51 51 50 51 51 51 50 50 49 48 48 48 49 49 49 48 48 48 47 47 47 47 47 46 46 46 46 45 46 46
48 49 50 50 51 51 52 52 52 52 52 52 52 52 51 51 51 51 51 51 50 50 49 48 48 48 48 47 47 46 46 46 45 45 45 44 44 43 43 43 44 44 44
47 48 49 49 50 51 52 52 52 52 52 52 52 53 52 51 51 49 49 49 49 49 49 47 48 48 46 46 45 45 44 44 43 43 42 41 40 40 41 41 42 43 42
44 45 46 46 47 48 49 49 51 51 51 52 52 51 51 51 50 49 48 48 48 48 48 47 47 46 46 45 44 43 42 41 39 39 38 38 38 39 40 40 41 40 39
42 43 43 43 44 45 45 46 48 49 50 50 50 49 49 48 48 47 47 47 47 47 47 45 44 44 43 41 41 40 39 38 37 37 37 37 38 38 38 38 38 38 38
40 41 42 43 43 43 44 44 45 46 46 47 46 46 46 46 45 45 45 45 45 45 44 43 41 41 40 38 37 36 36 35 35 35 35 36 37 37 36 36 36 36 36
39 39 40 42 42 42 42 43 43 43 44 43 43 43 43 43 43 44 43 43 43 42 42 41 40 40 38 36 35 34 35 34 34 34 34 34 34 34 33 34 34 34 33
38 39 39 40 41 42 41 41 40 40 40 40 40 41 42 43 43 43 43 42 41 40 39 39 38 37 36 35 34 34 33 32 32 32 32 32 32 31 32 32 32 32 31
35 36 36 37 37 38 37 37 36 36 36 36 36 38 40 41 41 40 40 40 39 38 37 36 36 35 34 33 32 32 31 31 32 31 31 30 30 30 30 29 30 29 28
33 33 33 33 33 33 33 33 33 33 33 33 34 35 36 37 37 37 36 36 36 36 34 33 33 33 32 31 31 30 30 30 30 30 29 29 28 28 28 27 28 28 27
31 31 31 31 30 30 31 31 31 31 31 32 32 33 32 32 32 32 33 33 32 30 29 29 28 28 28 28 27 27 27 27 27 28 27 27 27 26 26 26 26 26 26
29 30 30 29 29 29 29 29 30 30 31 31 30 30 30 29 29 29 29 28 27 26 26 26 26 25 25 24 23 23 24 24 24 24 24 24 24 23 23 23 23 23 23

GEFSMA_500_meanwind_318.txt.gz
Wind_Speed
36 35 36 36 35 35 36 36 37 37 36 36 36 36 35 35 35 35 35 35 35 35 35 35 35 36 37 37 38 38 39 39 39 39 38 38 38 39 39 38 38 38 38
38 37 37 37 36 36 36 37 37 37 38 38 38 38 37 37 37 36 37 37 37 37 36 36 37 38 38 38 39 39 39 40 40 40 39 39 40 40 40 40 39 39 39
38 38 38 37 37 38 38 38 38 39 39 39 39 39 38 38 39 39 38 38 38 39 39 39 39 39 39 40 40 40 40 40 40 41 41 41 41 41 42 42 42 42 41
39 39 38 39 39 40 40 40 40 40 41 41 41 40 40 40 40 40 40 40 40 40 40 41 41 41 41 41 41 42 42 42 43 43 44 44 44 44 44 44 43 44 44
41 41 40 40 40 41 41 41 41 42 42 42 42 42 43 42 42 42 42 42 42 42 42 42 42 43 43 43 43 43 43 44 44 45 45 46 46 46 46 46 46 46 46
42 42 42 42 42 42 42 42 42 43 44 43 44 44 45 44 44 44 44 43 43 43 43 44 44 44 45 45 45 45 46 46 46 47 47 47 48 48 49 49 49 49 49
42 43 43 43 43 44 44 44 44 44 45 45 46 46 46 46 46 46 45 45 45 45 45 45 45 46 46 47 47 47 47 48 48 48 49 50 50 51 51 51 51 51 51
44 44 44 43 44 45 45 45 45 46 46 47 48 48 47 47 47 46 47 46 46 46 47 47 47 48 48 49 49 49 49 49 50 50 51 51 52 52 52 52 52 52 52
45 46 45 45 45 46 46 46 46 46 47 48 49 49 49 48 48 48 47 47 48 48 49 49 49 48 49 49 50 50 50 50 50 50 51 51 51 52 52 52 53 53 53
46 47 47 46 46 47 48 48 48 48 48 48 49 50 50 50 50 49 49 49 49 49 49 50 50 49 49 48 48 48 48 49 49 50 51 51 52 52 52 53 54 54 55
48 48 48 48 49 48 49 49 49 49 49 49 50 50 51 51 52 51 51 51 51 51 50 49 49 49 48 49 49 48 48 49 50 50 50 51 51 52 53 53 54 54 55
48 48 48 48 49 49 49 49 50 50 50 50 50 51 52 52 51 52 52 52 52 50 49 49 49 49 49 49 49 49 50 50 50 50 50 51 52 52 53 53 54 53 53
49 49 48 48 50 51 51 51 51 51 51 51 51 51 52 52 53 52 52 52 51 50 49 49 49 49 49 49 49 50 50 50 49 49 49 50 50 51 52 52 52 52 52
49 50 49 49 50 52 52 52 52 52 51 51 51 52 52 52 52 51 51 51 50 48 48 48 49 49 50 50 49 49 49 49 48 49 49 49 49 49 49 50 50 51 50
48 49 49 49 50 51 52 52 52 52 52 52 52 52 53 52 51 51 50 50 49 47 46 47 48 48 49 49 48 48 48 48 47 47 47 47 47 47 48 48 47 47 47
47 48 48 49 49 50 50 50 52 52 53 53 53 52 52 51 50 50 50 49 49 48 46 46 47 47 47 47 47 47 46 45 45 45 46 45 45 45 45 45 44 44 44
46 47 47 48 49 49 50 50 50 51 51 51 51 51 50 50 50 50 49 49 49 48 47 45 45 45 45 44 44 43 43 43 43 43 44 44 44 44 44 43 43 42 42
44 45 46 46 47 48 49 49 50 49 49 48 49 49 49 49 49 49 48 48 48 48 47 45 44 44 42 43 43 42 42 41 41 40 41 41 42 43 43 43 42 41 41
42 43 44 44 45 46 47 47 47 47 47 47 47 47 47 47 47 47 48 46 46 46 45 44 43 42 42 41 41 41 41 40 40 38 38 39 40 40 41 40 39 39 39
40 41 42 42 43 44 44 45 44 44 45 45 44 44 44 44 44 45 45 44 44 44 43 43 42 40 40 40 40 40 39 39 38 38 38 38 37 38 38 37 37 36 36
38 39 39 40 40 41 41 42 43 43 43 43 42 42 42 42 42 43 43 43 43 43 44 43 41 39 39 39 39 38 38 38 38 37 36 36 36 35 35 35 35 35 36
36 37 37 38 38 39 39 39 40 41 41 41 41 40 40 41 41 41 42 41 42 42 42 42 41 39 38 38 37 38 37 36 35 35 35 35 35 34 34 33 33 33 33
34 35 36 36 36 37 38 38 38 38 38 38 38 39 39 40 40 40 40 39 39 40 40 40 39 38 37 37 36 36 35 35 34 34 33 33 33 33 32 32 31 31 31
33 33 34 34 35 36 36 36 36 36 36 36 36 35 36 37 38 38 37 37 37 37 37 37 36 35 35 34 33 33 32 33 33 33 32 31 31 31 31 30 30 29 28
31 32 32 32 33 33 33 33 34 34 33 33 33 34 34 34 33 33 33 32 32 32 32 32 32 32 31 31 31 30 30 31 30 30 29 29 28 28 28 27 26 25 23
30 31 30 30 29 30 30 31 31 31 30 31 31 32 31 30 30 29 29 28 28 28 28 28 28 28 27 26 27 27 27 27 26 26 26 26 26 25 24 23 22 22 22